Change the Weather History Date:

Friday, June 21, 2013

  Actual Average Record
Temperature  
Mean Temperature 70 °F -  
Max Temperature 80 °F 78 °F 90 °F (1965)
Min Temperature 60 °F 54 °F 41 °F (1979)
Cooling Degree Days 5    
Growing Degree Days 20 (Base 50)    
Moisture  
Dew Point 51 °F    
Average Humidity 48    
Maximum Humidity 77    
Minimum Humidity 30    
Precipitation  
Precipitation 0.04 in - - ()
Sea Level Pressure  
Sea Level Pressure 30.17 in    
Wind  
Wind Speed 3 mph (WSW)    
Max Wind Speed 12 mph    
Max Gust Speed 18 mph    
Visibility 10 miles    
Events      
Averages and records for this station are not official NWS values.
T = Trace of Precipitation, MM = Missing Value Source: NWS Daily Summary

Daily Weather History Graph

Daily Weather History Graph

Search for Another Location

Airport or City:

Trip Planner

Search our weather history database for the weather conditions in past years. The results will help you decide how hot, cold, wet, or windy it might be!

Date:

Astronomy

Jun. 21, 2013 Rise Set
Actual Time 4:53 AM EDT 8:27 PM EDT
Civil Twilight 4:16 AM EDT 9:04 PM EDT
Nautical Twilight 3:28 AM EDT 9:53 PM EDT
Astronomical Twilight 2:24 AM EDT 10:56 PM EDT
Moon 6:31 PM EDT (6/21) 3:10 AM EDT (6/21)
Length of Visible Light 16h 47m
Length of Day
15h 33m
Waxing Gibbous, 95% of the Moon is Illuminated
Jun 21
Waxing Gibbous
Jun 23
Full
Jun 30
Last Quarter
Jul 8
New
Jul 15
First Quarter

Hourly Weather History & Observations

Time (EDT) Temp. Heat Index Dew Point Humidity Pressure Visibility Wind Dir Wind Speed Gust Speed Precip Events Conditions
12:15 AM - - - N/A% 30.19 in 10.0 mi SSW 4.6 mph - N/A   Clear
12:35 AM - - - N/A% 30.18 in 10.0 mi SSW 6.9 mph - N/A   Clear
12:55 AM - - - N/A% 30.18 in 10.0 mi SSW 4.6 mph - N/A   Clear
1:15 AM - - - N/A% 30.18 in 10.0 mi SSW 4.6 mph - N/A   Clear
1:35 AM - - - N/A% 30.18 in 10.0 mi Calm Calm - N/A   Clear
1:55 AM - - - N/A% 30.18 in 10.0 mi Calm Calm - N/A   Clear
2:15 AM - - - N/A% 30.18 in 10.0 mi Calm Calm - N/A   Clear
2:35 AM - - - N/A% 30.17 in 10.0 mi Calm Calm - N/A   Clear
2:55 AM - - - N/A% 30.17 in 10.0 mi Calm Calm - N/A   Clear
3:15 AM - - - N/A% 30.17 in 10.0 mi Calm Calm - N/A   Clear
3:35 AM - - - N/A% 30.17 in 10.0 mi Calm Calm - N/A   Clear
3:55 AM - - - N/A% 30.17 in 10.0 mi Calm Calm - N/A   Clear
4:15 AM - - - N/A% 30.16 in 10.0 mi Calm Calm - N/A   Clear
4:35 AM - - - N/A% 30.17 in 10.0 mi Calm Calm - N/A   Clear
4:55 AM - - - N/A% 30.16 in 5.0 mi Calm Calm - N/A   Clear
5:15 AM - - - N/A% 30.17 in 5.0 mi Calm Calm - N/A   Clear
5:35 AM - - - N/A% 30.17 in 9.0 mi Calm Calm - N/A   Clear
5:55 AM - - - N/A% 30.17 in 9.0 mi Calm Calm - N/A   Clear
6:15 AM - - - N/A% 30.18 in 9.0 mi Calm Calm - N/A   Scattered Clouds
6:35 AM - - - N/A% 30.18 in 9.0 mi SSW 3.5 mph - N/A   Scattered Clouds
6:55 AM - - - N/A% 30.19 in 8.0 mi Calm Calm - N/A   Partly Cloudy
7:15 AM - - - N/A% 30.19 in 9.0 mi Calm Calm - N/A   Partly Cloudy
7:35 AM - - - N/A% 30.19 in 10.0 mi Calm Calm - N/A   Clear
7:55 AM - - - N/A% 30.19 in 10.0 mi Calm Calm - N/A   Clear
8:15 AM - - - N/A% 30.19 in 10.0 mi Calm Calm - N/A   Clear
8:35 AM - - - N/A% 30.19 in 10.0 mi Calm Calm - N/A   Clear
8:55 AM - - - N/A% 30.19 in 10.0 mi Calm Calm - N/A   Clear
9:15 AM - - - N/A% 30.19 in 10.0 mi Calm Calm - N/A   Clear
9:35 AM - - - N/A% 30.19 in 10.0 mi Calm Calm - N/A   Clear
9:55 AM - - - N/A% 30.19 in 10.0 mi Calm Calm - N/A   Clear
10:15 AM 68.0 °F - 57.2 °F 68% 30.20 in 3.0 mi SSW 3.5 mph - 0.04 in   Partly Cloudy
10:35 AM 68.0 °F - 59.0 °F 73% 30.20 in 10.0 mi SSW 4.6 mph - 0.04 in   Partly Cloudy
10:55 AM 71.6 °F - 55.4 °F 57% 30.20 in 10.0 mi WSW 6.9 mph - 0.04 in   Clear
11:15 AM 71.6 °F - 51.8 °F 50% 30.20 in 10.0 mi West 5.8 mph - N/A   Clear
11:35 AM 73.4 °F - 51.8 °F 47% 30.19 in 10.0 mi SW 3.5 mph - N/A   Clear
11:55 AM 73.4 °F - 50.0 °F 44% 30.19 in - WSW 5.8 mph - N/A   Clear
12:15 PM 73.4 °F - 48.2 °F 41% 30.19 in - SW 9.2 mph - N/A   Clear
12:35 PM 75.2 °F - 51.8 °F 44% 30.19 in - SW 8.1 mph - N/A   Clear
12:55 PM 75.2 °F - 51.8 °F 44% 30.19 in - SW 5.8 mph - N/A   Clear
1:15 PM 75.2 °F - 50.0 °F 41% 30.18 in - WSW 10.4 mph - N/A   Clear
1:35 PM 75.2 °F - 50.0 °F 41% 30.17 in - WSW 11.5 mph 16.1 mph N/A   Clear
1:55 PM 77.0 °F - 51.8 °F 41% 30.17 in - WSW 3.5 mph - N/A   Clear
2:15 PM 78.8 °F - 51.8 °F 39% 30.16 in - WSW 8.1 mph - N/A   Clear
2:35 PM 78.8 °F - 51.8 °F 39% 30.16 in - South 6.9 mph - N/A   Partly Cloudy
2:55 PM 78.8 °F - 51.8 °F 39% 30.16 in - WSW 11.5 mph - N/A   Clear
3:15 PM 78.8 °F - 51.8 °F 39% 30.15 in - SW 10.4 mph 16.1 mph N/A   Clear
3:35 PM 78.8 °F - 50.0 °F 36% 30.15 in - West 4.6 mph 18.4 mph N/A   Partly Cloudy
3:55 PM 77.0 °F - 51.8 °F 41% 30.15 in - SW 6.9 mph - N/A   Scattered Clouds
4:15 PM 80.6 °F 80.3 °F 53.6 °F 39% 30.14 in - SW 6.9 mph - N/A   Scattered Clouds
4:35 PM 80.6 °F - 50.0 °F 34% 30.14 in - WSW 11.5 mph - N/A   Partly Cloudy
4:55 PM 80.6 °F - 51.8 °F 37% 30.14 in - WSW 10.4 mph - N/A   Partly Cloudy
5:15 PM 80.6 °F - 50.0 °F 34% 30.14 in - WNW 4.6 mph - N/A   Clear
5:35 PM 80.6 °F - 48.2 °F 32% 30.14 in - West 8.1 mph - N/A   Clear
5:55 PM 80.6 °F - 48.2 °F 32% 30.14 in - West 8.1 mph - N/A   Clear
6:15 PM 80.6 °F - 46.4 °F 30% 30.14 in - West 9.2 mph 16.1 mph N/A   Clear
6:35 PM 80.6 °F - 46.4 °F 30% 30.14 in - WNW 10.4 mph - N/A   Clear
6:55 PM 78.8 °F - 48.2 °F 34% 30.15 in - West 6.9 mph - N/A   Clear
7:15 PM 78.8 °F - 48.2 °F 34% 30.16 in - West 4.6 mph - N/A   Clear
7:35 PM 77.0 °F - 48.2 °F 36% 30.16 in - West 5.8 mph - N/A   Clear
7:55 PM 75.2 °F - 48.2 °F 38% 30.17 in 10.0 mi West 4.6 mph - N/A   Clear
8:15 PM 75.2 °F - 48.2 °F 38% 30.17 in 10.0 mi WNW 4.6 mph - N/A   Clear
8:35 PM 71.6 °F - 48.2 °F 43% 30.17 in 10.0 mi WNW 3.5 mph - N/A   Clear
8:55 PM 69.8 °F - 48.2 °F 46% 30.17 in 10.0 mi Calm Calm - N/A   Clear
9:15 PM 66.2 °F - 50.0 °F 56% 30.18 in 10.0 mi SSW 4.6 mph - N/A   Clear
9:35 PM 64.4 °F - 53.6 °F 68% 30.18 in 10.0 mi Calm Calm - N/A   Clear
9:55 PM 64.4 °F - 53.6 °F 68% 30.19 in 10.0 mi Calm Calm - N/A   Clear
10:15 PM 62.6 °F - 53.6 °F 72% 30.19 in 10.0 mi Calm Calm - N/A   Clear
10:35 PM 62.6 °F - 53.6 °F 72% 30.19 in 10.0 mi Calm Calm - N/A   Clear
10:55 PM 62.6 °F - 53.6 °F 72% 30.19 in 10.0 mi Calm Calm - N/A   Clear
11:15 PM 60.8 °F - 53.6 °F 77% 30.18 in 10.0 mi SSW 3.5 mph - N/A   Clear
11:35 PM 62.6 °F - 53.6 °F 72% 30.18 in 10.0 mi Calm Calm - N/A   Clear
11:55 PM 60.8 °F - 53.6 °F 77% 30.18 in 10.0 mi Calm Calm - N/A   Clear